User: anonymous   Login
Location: Carabito
(9.8355°N, 67.9249°W)
Time: 16:53:05
(UTC+00:00)
Language:

Cosmos 2278 Rocket - Orbit

View from above orbital plane
View from above orbital plane
View from above satellite
View from above satellite

Ground track
Ground track

The orbit data is extracted from the following two-line orbital elements,

1 23088U 94023B   24195.90973059  .00000064  00000-0  58036-4 0  9998
2 23088  70.9996 258.7543 0002217 179.7228 180.3897 14.14859302560683
Epoch (UTC): 13 July 2024 21:50:00
Eccentricity: 0.0002217
inclination: 70.9996°
perigee height: 841 km
apogee height: 844 km
right ascension of ascending node: 258.7543°
argument of perigee: 179.7228°
revolutions per day: 14.14859302
mean anomaly at epoch: 180.3897°
orbit number at epoch: 56068

The dashed part of the orbit path shows where the satellite is in the earth's shadow,  

DLR